Location: Göttingen
(51.5413°N, 9.9158°E)
Time: 03:20:26
(UTC+02:00)

Envisat - Pass Details

Date: 22 January 2022
Orbit: 764 x 765 km, 98.2° (Epoch: 28 May)

Event Time Altitude Azimuth Distance (km) Brightness Sun altitude
Rises 17:26:37 0° 204° (SSW) 3,220 7.1 -5.6°
Reaches altitude 10° 17:29:26 10° 220° (SW) 2,299 6.7 -6.0°
Maximum altitude 17:33:17 22° 270° (W) 1,643 5.8 -6.5°
Drops below altitude 10° 17:37:11 10° 320° (NW) 2,312 5.7 -7.1°
Sets 17:40:01 0° 336° (NNW) 3,243 6.3 -7.5°
